Tracking 23764 objects as of 17-Oct-2021
HD Live streaming from Space Station
objects crossing your sky now

IRIDIUM 33 DEB

Track IRIDIUM 33 DEB now!
10-day predictions


NORAD ID: 46968
Int'l Code: 1997-051ACA
Perigee: 514.7 km
Apogee: 536.5 km
Inclination: 86.3 °
Period: 95.0 minutes
Semi major axis: 6896 km
RCS: Unknown
Launch date: September 14, 1997
Source: United States (US)
Launch site: TYURATAM MISSILE AND SPACE COMPLEX (TTMTR)

Note: This is SATELLITE DEBRIS
aabbcc
Your satellite tracking list
Your tracking list is empty




NASA's NSSDC Master Catalog

Two Line Element Set (TLE):
1 46968U 97051ACA 21289.07370409  .00021938  00000-0  11408-2 0  9996
2 46968  86.2695 149.7003 0015808 286.0190 227.0185 15.15839934289779
Source of the keplerian elements: AFSPC